Regional Weather Roundup
Issued by NWS

Home | Current Version | Previous Version | Text Only | Print | Product List | Glossary Off
Versions: 1 2 3 4 5 6 7 8 9 10 11 12 13 14 15 16 17 18 19 20 21 22 23 24 25 26 27 28 29 30 31 32 33 34 35 36 37 38 39 40 41 42 43 44 45 46 47 48 49 50

000
ASUS43 KBIS 231702
RWRND

NORTH DAKOTA REGIONAL WEATHER ROUNDUP
NATIONAL WEATHER SERVICE BISMARCK ND
1200 PM CDT SUN JUL 23 2017

NOTE: "FAIR" INDICATES FEW OR NO CLOUDS BELOW 12,000 FEET WITH NO
SIGNIFICANT WEATHER AND/OR OBSTRUCTIONS TO VISIBILITY.


NDZ001>003-009>011-017-231800-
NORTHWEST NORTH DAKOTA

CITY           SKY/WX    TMP DP  RH WIND       PRES   REMARKS
WILLISTON      SUNNY     82  53  36 SE7       30.03F
MINOT          SUNNY     76  52  43 VRB5      30.05F
MINOT AFB      SUNNY     74  52  47 CALM      30.04S
$$

NDZ018>021-031>035-040>046-231800-
SOUTHWEST NORTH DAKOTA

CITY           SKY/WX    TMP DP  RH WIND       PRES   REMARKS
BISMARCK       SUNNY     76  55  48 CALM      30.08F
DICKINSON      SUNNY     81  52  36 VRB3      30.06F
GARRISON         N/A     74  56  53 VRB6      30.06F
HETTINGER ARPT SUNNY     81  48  31 NW5       30.09F
$$

NDZ004>008-012>016-024-026-027-054-231800-
NORTHEAST NORTH DAKOTA

CITY           SKY/WX    TMP DP  RH WIND       PRES   REMARKS
GRAND FORKS    PTSUNNY   70  62  76 N8        30.01S
GRND FRKS AFB  PTSUNNY   69  61  76 NE6       30.03R
DEVILS LAKE    SUNNY     71  55  56 NW5       30.06S
$$

NDZ022-023-025-028>030-036>039-047>053-231800-
SOUTHEAST NORTH DAKOTA

CITY           SKY/WX    TMP DP  RH WIND       PRES   REMARKS
FARGO          CLOUDY    68  61  78 NW8       30.02R
JAMESTOWN      MOSUNNY   74  59  59 N12       30.05S
$$





USA.gov is the U.S. government's official web portal to all federal, state and local government web resources and services.